Weather History for Del Rio, TX

Change the Weather History Date:

Friday, November 30, 2012

  Actual Average Record
Temperature  
Mean Temperature 65 °F 55 °F  
Max Temperature 78 °F 67 °F 81 °F (1950)
Min Temperature 51 °F 44 °F 21 °F (1911)
Degree Days  
Heating Degree Days 0 10  
Month to date heating degree days 78 173  
Since 1 July heating degree days 106 197  
Cooling Degree Days 0 0  
Month to date cooling degree days 100 47  
Year to date cooling degree days 4087 3372  
Growing Degree Days 14 (Base 50)    
Moisture  
Dew Point 54 °F    
Average Humidity 74    
Maximum Humidity 100    
Minimum Humidity 48    
Precipitation  
Precipitation 0.00 in 0.02 in 0.91 in (1968)
Month to date precipitation 0.05 0.93  
Year to date precipitation 13.83 18.87  
Sea Level Pressure  
Sea Level Pressure 30.10 in    
Wind  
Wind Speed 6 mph (SE)    
Max Wind Speed 12 mph    
Max Gust Speed 14 mph    
Visibility 6 miles    
Events Fog    
T = Trace of Precipitation, MM = Missing Value Source: NWS Daily Summary

Daily Weather History Graph

Daily Weather History Graph

Search for Another Location

Airport:

Trip Planner

Search our weather history database for the weather conditions in past years. The results will help you decide how hot, cold, wet, or windy it might be!

Date:

Astronomy

Nov. 30, 2012 Rise Set
Actual Time 7:20 AM CST 5:44 PM CST
Civil Twilight 6:54 AM CST 6:10 PM CST
Nautical Twilight 6:25 AM CST 6:39 PM CST
Astronomical Twilight 5:56 AM CST 7:08 PM CST
Moon 7:40 PM CST (11/30) 8:54 AM CST (11/30)
Length of Visible Light 11h 16m
Length of Day
10h 24m
Waning Gibbous, 96% of the Moon is Illuminated
Nov 30
Waning Gibbous
Dec 6
Last Quarter
Dec 13
New
Dec 19
First Quarter
Dec 28
Full

Hourly Weather History & Observations

Time (CST) Temp. Dew Point Humidity Pressure Visibility Wind Dir Wind Speed Gust Speed Precip Events Conditions
12:53 AM 57.0 °F 53.1 °F 87% 30.11 in 10.0 mi ESE 5.8 mph - N/A   Clear
1:53 AM 55.0 °F 52.0 °F 89% 30.10 in 8.0 mi East 4.6 mph - N/A   Clear
2:53 AM 54.0 °F 52.0 °F 93% 30.09 in 7.0 mi East 5.8 mph - N/A   Clear
3:53 AM 54.0 °F 52.0 °F 93% 30.09 in 6.0 mi East 6.9 mph - N/A   Partly Cloudy
4:53 AM 54.0 °F 52.0 °F 93% 30.09 in 5.0 mi East 6.9 mph - N/A   Partly Cloudy
5:53 AM 53.6 °F 51.8 °F 94% 30.12 in 5.0 mi ENE 5.8 mph - N/A   Partly Cloudy
6:35 AM 53.6 °F 51.8 °F 94% 30.13 in 4.0 mi SSW 4.6 mph - N/A   Mostly Cloudy
6:53 AM 52.0 °F 51.1 °F 97% 30.11 in 3.0 mi Calm Calm - N/A   Overcast
7:00 AM 51.8 °F 51.8 °F 100% 30.13 in 2.5 mi Calm Calm - N/A   Overcast
7:06 AM 51.8 °F 51.8 °F 100% 30.14 in 0.8 mi Calm Calm - N/A   Overcast
7:14 AM 51.8 °F 50.0 °F 94% 30.14 in 0.5 mi Calm Calm - N/A Fog Fog
7:21 AM 51.8 °F 51.8 °F 100% 30.14 in 1.0 mi Calm Calm - N/A   Overcast
7:46 AM 51.8 °F 51.8 °F 100% 30.15 in 1.8 mi West 3.5 mph - N/A   Overcast
7:50 AM 51.8 °F 51.8 °F 100% 30.15 in 0.5 mi West 3.5 mph - N/A Fog Fog
7:53 AM 52.0 °F 52.0 °F 100% 30.13 in 0.2 mi Calm Calm - N/A Fog Fog
8:53 AM 54.0 °F 53.1 °F 97% 30.15 in 0.5 mi West 3.5 mph - N/A Fog Fog
9:12 AM 53.6 °F 53.6 °F 100% 30.17 in 1.0 mi West 5.8 mph - N/A   Overcast
9:24 AM 53.6 °F 53.6 °F 100% 30.17 in 3.0 mi West 4.6 mph - N/A   Overcast
9:33 AM 53.6 °F 53.6 °F 100% 30.17 in 2.5 mi West 4.6 mph - N/A   Overcast
9:40 AM 53.6 °F 53.6 °F 100% 30.18 in 4.0 mi West 4.6 mph - N/A   Overcast
9:53 AM 55.0 °F 53.1 °F 93% 30.16 in 6.0 mi West 3.5 mph - N/A   Overcast
10:09 AM 55.4 °F 53.6 °F 94% 30.18 in 8.0 mi Calm Calm - N/A   Overcast
10:29 AM 59.0 °F 53.6 °F 82% 30.18 in 9.0 mi Calm Calm - N/A   Overcast
10:53 AM 61.0 °F 55.0 °F 81% 30.15 in 10.0 mi NW 4.6 mph - N/A   Overcast
11:31 AM 64.4 °F 55.4 °F 73% 30.16 in 10.0 mi Calm Calm - N/A   Partly Cloudy
11:53 AM 64.9 °F 55.9 °F 73% 30.12 in 10.0 mi Calm Calm - N/A   Clear
12:53 PM 69.1 °F 57.0 °F 65% 30.08 in 10.0 mi Variable 3.5 mph - N/A   Clear
1:53 PM 73.0 °F 55.9 °F 55% 30.04 in 10.0 mi Variable 4.6 mph - N/A   Clear
2:53 PM 75.9 °F 55.9 °F 50% 30.01 in 10.0 mi SSE 8.1 mph - N/A   Clear
3:53 PM 78.1 °F 57.0 °F 48% 29.99 in 10.0 mi SSE 9.2 mph - N/A   Clear
4:53 PM 77.0 °F 57.0 °F 50% 29.98 in 10.0 mi SSE 10.4 mph - N/A   Clear
5:53 PM 73.0 °F 57.0 °F 57% 29.99 in 10.0 mi SE 6.9 mph - N/A   Clear
6:53 PM 70.0 °F 57.9 °F 65% 30.01 in 10.0 mi East 4.6 mph - N/A   Clear
7:53 PM 70.0 °F 59.0 °F 68% 30.02 in 10.0 mi East 8.1 mph - N/A   Clear
8:53 PM 68.0 °F 59.0 °F 73% 30.03 in 10.0 mi ESE 8.1 mph - N/A   Clear
9:53 PM 66.9 °F 59.0 °F 76% 30.04 in 10.0 mi ESE 8.1 mph - N/A   Clear
10:53 PM 64.9 °F 59.0 °F 81% 30.04 in 10.0 mi ESE 6.9 mph - N/A   Clear
11:53 PM 64.0 °F 59.0 °F 84% 30.04 in 10.0 mi ESE 9.2 mph - N/A   Clear